Regional Weather Roundup
Issued by NWS Northern Indiana

Home | Current Version | Previous Version | Text Only | Print | Product List | Glossary Off
Versions: 1 2 3 4 5 6 7 8 9 10 11 12 13 14 15 16 17 18 19 20 21 22 23 24 25 26 27 28 29 30 31 32 33 34 35 36 37 38 39 40 41 42 43 44 45 46 47 48 49 50

000
ASUS43 KIWX 281900
RWRIWX

KIWX WEATHER ROUNDUP
NATIONAL WEATHER SERVICE NORTHERN INDIANA
300 PM EDT TUE MAR 28 2017

NOTE: "FAIR" INDICATES FEW OR NO CLOUDS BELOW 12,000 FEET WITH NO
SIGNIFICANT WEATHER AND/OR OBSTRUCTIONS TO VISIBILITY.

* THESE STATIONS ARE NOT UNDER NWS QUALITY CONTROL. THEY ALSO MAY NOT
  REPORT WEATHER SUCH AS PRECIPITATION OR FOG.

INZ001>027-282000-
NORTHERN INDIANA

CITY           SKY/WX    TMP DP  RH WIND       PRES   REMARKS
GARY*          CLOUDY    43  37  81 N12G23    30.14S
MICHIGAN CITY* CLOUDY    41  41 100 N10       30.12S
KNOX*          CLOUDY    45  27  49 N9        30.09F
SOUTH BEND     CLOUDY    46  41  82 N5        30.10S
ELKHART*       CLOUDY    46  41  81 N6        30.09R
GOSHEN         CLOUDY    48  40  73 N9        30.08S
MONTICELLO*    CLOUDY    49  41  73 N9        30.07F
ANGOLA*        CLOUDY    46  37  71 VRB5      30.07R
FORT WAYNE     CLOUDY    51  44  77 N6        30.07S
PERU/GRISSOM   CLOUDY    51  45  82 N10       30.06S

$$
INZ028>050-282000-
CENTRAL INDIANA

CITY           SKY/WX    TMP DP  RH WIND       PRES   REMARKS
LAFAYETTE      CLOUDY    51  43  74 N8        30.08S
KOKOMO*        CLOUDY    52  45  77 N8        30.08R
MUNCIE*        CLOUDY    53  47  79 N8        30.05S
INDIANAPOLIS   CLOUDY    57  46  66 N8        30.05S

$$
MIZ043>046-050>051-056>058-064>065-071>073-077>080-282000-
SOUTHWEST LOWER MICHIGAN

CITY           SKY/WX    TMP DP  RH WIND       PRES   REMARKS
BATTLE CREEK   CLOUDY    46  39  76 NE12      30.10R
BENTON HARBOR  CLOUDY    42  37  82 VRB5      30.11S
COLDWATER*     CLOUDY    47  40  77 N6        30.08S
HILLSDALE*     CLOUDY    45  37  76 N5        30.06F
HOLLAND        CLOUDY    49  38  65 E10       30.11F
GRAND RAPIDS   CLOUDY    47  40  76 E10       30.11R
KALAMAZOO      CLOUDY    48  38  68 NE8       30.10R
STURGIS*       CLOUDY    46  40  79 NE3       30.08R
THREE RIVERS*  CLOUDY    46  40  79 NE7       30.10R

$$
OHZ001>008-015>018-024>025-282000-
NORTHWEST OHIO

CITY           SKY/WX    TMP DP  RH WIND       PRES   REMARKS
DEFIANCE       CLOUDY    48  41  76 N8        30.07S
FINDLAY        CLOUDY    50  41  71 NE10      30.05S
TOLEDO EXPRESS CLOUDY    49  41  74 N9        30.06R
TOLEDO METCALF CLOUDY    49  41  74 NE7       30.07R
LIMA           CLOUDY    49  46  90 N9        30.05R

$$
AND FOR LAKE MICHIGAN COASTAL AND OPEN LAKE BUOY OBSERVATIONS

STATION/POSITION TEMP    WIND        PRES    VSBY  WAVE
                 AIR SEA DIR/SP/G                  HT/PER
                 (F)     (DEG/KT/KT) (MB)    (MI)  (FT/S)
CALUMET HARBOR    40     340/ 12/ 17 1019.8F
BURNS HARBOR      39     360/ 12/ 13 1020.3F

$$
&&




USA.gov is the U.S. government's official web portal to all federal, state and local government web resources and services.